Retour au catalogue

SL-16 DEB

ActifLEO
NORAD 19658·DEBRIS·🇷🇺 Russia

Lancé Nov 23, 1988 depuis Baikonur Cosmodrome

Loading…

Prochains Passages (prochaines 24 heures)

TLE

FraisSource: Space-Track

Époque: Sep 14, 2026, 12:28 UTC

1 19658U 88102E   26257.52005172  .00000053  00000-0  87765-4 0  9997
2 19658  71.0190 289.6165 0198285 245.4165 269.1862 13.75099228895873

Suivez SL-16 DEB en temps réel avec AllMySat

Download on the App Store